Regional Weather Roundup
Issued by NWS

Home | Current Version | Previous Version | Graphics & Text | Print | Product List | Glossary On
Versions: 1 2 3 4 5 6 7 8 9 10 11 12 13 14 15 16 17 18 19 20 21 22 23 24 25 26 27 28 29 30 31 32 33 34 35 36 37 38 39 40 41 42 43 44 45 46 47 48 49 50
000
ASUS45 KSLC 182010
RWRUT

UTAH REGIONAL WEATHER ROUNDUP
NATIONAL WEATHER SERVICE SALT LAKE CITY UT
100 PM MST WED JAN 18 2017

UTZ001>011-023>025-182100-

NORTHERN UTAH

CITY           SKY/WX    TMP DP  RH WIND       PRES   REMARKS
BRIGHAM CITY     N/A     23  14  69 CALM      30.10F
DUGWAY         CLOUDY    24  23  96 NW5       30.09F FOG     WCI  18
HILL AFB       MOSUNNY   26  16  65 NW5       30.05F WCI  21
LOGAN          SUNNY     10   6  84 W6        30.09F FOG     WCI   0
OGDEN          MOSUNNY   24  18  77 NW7       30.07F HAZE    WCI  16
SALT LAKE CITY MOSUNNY   30  22  72 N8        30.06F WCI  22
TOOELE VALLEY  CLOUDY    27  23  86 N8        30.08F FOG     WCI  18
WENDOVER       CLOUDY    25  18  74 CALM      30.08F
HEBER CITY     SUNNY     18   9  68 CALM      30.03F
WEST JORDAN    SUNNY     32  25  75 CALM      30.05F

$$

UTZ011>015-024>027-182100-

CENTRAL/NORTHEAST UTAH

CITY           SKY/WX    TMP DP  RH WIND       PRES   REMARKS
PROVO AIRPORT  SUNNY     31  21  66 NW3       30.06F
MOAB/CANYONLAN MOSUNNY   39  25  57 NW6       30.07F WCI  35
DELTA          SUNNY     34  25  69 NE5       30.03F WCI  30
PRICE          SUNNY     27  13  55 CALM      30.06F
ROOSEVELT      LGT SNOW  21  12  68 NE3       30.18F
VERNAL         CLOUDY    17  10  74 E3        30.15F HAZE

$$

UTZ013>016-019>022-027-182100-

SOUTHERN UTAH

CITY           SKY/WX    TMP DP  RH WIND       PRES   REMARKS
BRYCE CANYON   SUNNY     33  22  63 SE12      30.05F WCI  24
CEDAR CITY     SUNNY     46  25  43 S18       30.03F
MILFORD        SUNNY     42  27  55 S13       30.01F
ST GEORGE      CLEAR     45  28  53 S3        30.12F
HANKSVILLE     SUNNY     37  23  56 MISG      30.13F
BLANDING       PTSUNNY   41  31  66 SW6       30.14F

$$

REGIONAL REPORTS     COLORADO/ARIZONA

CITY           SKY/WX    TMP DP  RH WIND       PRES   REMARKS
CRAIG, CO      FOG       15  11  83 CALM      30.07F VSB 1/2
GRAND JUNCTION CLOUDY    39  30  70 NW6       30.07F WCI  35
RIFLE, CO      SUNNY     39  21  48 CALM      30.05F
MONTROSE, CO   SUNNY     42  26  53 VRB5      30.07F
CORTEZ, CO     CLOUDY    42  30  62 W13       30.06F
COLORADO CITY    N/A     50  30  46 W8        30.11F
PAGE, AZ       SUNNY     44  26  49 CALM      30.08F
GRAND CANYON   SUNNY     43  22  43 W13       30.11F
KINGMAN, AZ    SUNNY     55  23  28 SW14      30.10F
FLAGSTAFF, AZ  SUNNY     42  27  55 SW10      30.10F

$$

REGIONAL REPORTS    NEVADA/IDAHO/WYOMING

CITY           SKY/WX    TMP DP  RH WIND       PRES   REMARKS
LAS VEGAS, NV  MOSUNNY   53  20  27 SE5       30.07F
ELY, NY        CLOUDY    36  17  46 S7        29.97F WCI  30
ELKO, NV       CLOUDY    22  11  62 E8        29.93F WCI  12
POCATELLO, ID  CLOUDY    21  11  65 NE7       30.02F WCI  12
BURLEY, ID     CLOUDY    33  18  53 CALM      29.93F
FORT BRIDGER,    N/A     22  14  72 CALM      30.00F
EVANSTON, WY   CLOUDY    23  10  57 SE7       29.98F WCI  15
ROCK SPRINGS,  CLOUDY    10   3  73 CALM      29.98F
KEMMERER, WY     N/A     27   9  46 CALM      29.97F

$$



USA.gov is the U.S. government's official web portal to all federal, state and local government web resources and services.